sat.trackr.live / text

‹ back to catalog

STARLINK-1707

NORAD 46359 · 2020-062AL

PAYLOAD ACTIVE UNKNOWN

§ Identity

Operator
Country
US
Launch date
2020-09-03
Launch site
AFETR
Launch vehicle
Mass (kg)
RCS (m²)

Purposes: comms

External: N2YO · Heavens-Above · Gunter

§ Orbital elements

Epoch: 2026-05-25T06:00:02.000160Z

Period
91.04 min
Inclination
53.0187°
Eccentricity
0.0004823
Mean motion
15.81677496 rev/d
Perigee alt
322.5 km
Apogee alt
328.9 km
Semi-major
6,703.8 km
B*
7.3042e-4
RAAN
254.2041°
Arg perigee
334.5132°
Mean anomaly
200.9910°
Rev number
599

§ Raw data

STARLINK-17071 46359U 20062AL  26145.25002315  .00151684  00000+0  73042-3 0  99962 46359  53.0187 254.2041 0004823 334.5132 200.9910 15.81677496  5997

JSON: /api/v1/satellites/46359 · /tle

For live sub-satellite position, see the globe view (requires WebGL).

§ Visibility from observer

Set your observer location to see the next 7 days of passes ≥ 10°. The values pass through the URL so the page stays shareable.

No JS? Fill the form by hand. The geolocation button needs JavaScript.